Tracking 30995 objects as of 5-Jul-2025
HD Live streaming from Space Station
objects crossing your sky now

FENGYUN 1C DEB

Track FENGYUN 1C DEB now!
10-day predictions


NORAD ID: 30331
Int'l Code: 1999-025AAS
Perigee: 837.6 km
Apogee: 980.8 km
Inclination: 99.0 °
Period: 103.0 minutes
Semi major axis: 7280 km
RCS: 0.0259 m2 (small)
Launch date: May 10, 1999
Source: People's Republic of China (PRC)
Launch site: Taiyaun Space Center, China (TSC)

Note: This is SATELLITE DEBRIS
Your satellite tracking list
Your tracking list is empty




NASA's NSSDC Master Catalog

Two Line Element Set (TLE):
1 30331U 99025AAS 25186.60057322 -.00000045  00000-0 -14799-5 0  9998
2 30331  98.9739 224.9232 0098348  89.0809  36.3487 13.97608390938824
Source of the keplerian elements: AFSPC